Other Public Products
Issued by NWS Charleston, SC

Home | Current Version | Previous Version | Text Only | Print | Product List | Glossary On
Versions: 1 2 3 4 5 6 7 8 9 10 11 12 13 14 15 16 17 18 19 20 21 22 23 24 25 26 27 28 29 30 31 32 33 34 35 36 37 38 39 40 41 42 43 44 45 46 47 48 49 50
000
FPUS82 KCHS 051727
OPUCHS

TEST...KCHS/KSAV Gateway Observations...TEST
National Weather Service Charleston SC
100 PM EDT SUN JUL 05 2020

NOTE: "fair" indicates few or no clouds below 12,000 feet with no
significant weather and/or obstructions to visibility.

SCZ050-WAZ558-NCZ071-TXZ119-213-PAZ071-DCZ001-FLZ074-172-MI076-
NYZ176-178-MAZ016-IL014-TNZ027-NJZ106-GAZ044-MD014-051800-

...Gateway Observations for Charleston International...

CITY           SKY/WX    TMP DP  RH WIND       PRES   REMARKS
Chas Airport   MOSUNNY   88  66  48 SE10      30.01S HX  90
Seattle        MOSUNNY   64  51  62 CALM      30.19F
Charlotte      PTSUNNY   90  69  50 SW5       30.02F HX  94
Dallas DFW     CLOUDY    79  73  82 CALM      29.86F
Dallas Love    CLOUDY    80  70  71 E5        29.88F
Philladelphia  MOSUNNY   91  66  43 SW14      29.95F HX  93
Wash National  SUNNY     90  72  55 S10       29.99F HX  97
Baltimore      PTSUNNY   90  72  55 VRB7      29.98F HX  97
Miami          PTSUNNY   90  74  59 S9        30.00S HX  99
Detroit        MOSUNNY   88  53  30 CALM      30.02F
Newark         PTSUNNY   91  60  35 N8        29.94F HX  90
Laguardia      MOSUNNY   89  61  38 NW6       29.94F
J F K          MOSUNNY   85  69  58 S8        29.96S
Boston Logan   MOSUNNY   77  66  68 SE10      29.93F
Ft. Lauderdale PTSUNNY   89  77  67 SE14      29.99S HX 101
Chicago O`Hare MOSUNNY   90  66  45 E7        30.01S HX  92
Chicago Midway MOSUNNY   88  61  40 E8        30.01S
Houston Bush   MOSUNNY   89  74  60 W8        29.90S HX  98
Houston Hobby  PTSUNNY   89  74  60 W12       29.90S HX  98
Nashville      PTSUNNY   89  72  56 SW3       29.98F HX  96
Atlanta        PTSUNNY   88  66  48 E8        30.00S HX  90
London Heathrw   N/A     66  41  39 W23       29.89S

$$

GAZ044-118-TXZ119-213-NCZ071-DCZ001-MDZ014-506-PAZ021-071-NJZ106-
NYZ176-178-MAZ106-OHZ011-021-055-MIZ076-KYZ091-ILZ014-INZ047-
MNZ060-ONZ431-051800-

...Gateway Observations for Savannah International...

CITY           SKY/WX    TMP DP  RH WIND       PRES   REMARKS
Savannah Arpt  PTSUNNY   80  75  84 E6        30.01S
Atlanta        PTSUNNY   88  66  48 E8        30.00S HX  90
Charlotte      PTSUNNY   90  69  50 SW5       30.02F HX  94
Dallas DFW     CLOUDY    79  73  82 CALM      29.86F
Houston Bush   MOSUNNY   89  74  60 W8        29.90S HX  98
Wash National  SUNNY     90  72  55 S10       29.99F HX  97
Wash Dulles    PTSUNNY   89  71  55 CALM      29.99S HX  95
Baltimore      PTSUNNY   90  72  55 VRB7      29.98F HX  97
Philadelphia   MOSUNNY   91  66  43 SW14      29.95F HX  93
Newark         PTSUNNY   91  60  35 N8        29.94F HX  90
Laguardia      MOSUNNY   89  61  38 NW6       29.94F
J F K          MOSUNNY   85  69  58 S8        29.96S
Boston         MOSUNNY   77  66  68 SE10      29.93F
Pittsburg      PTSUNNY   87  56  34 S6        30.02F
Akron          PTSUNNY   86  61  42 VRB6      30.03F
Cleveland      PTSUNNY   86  55  34 N6        30.04S
Cincinnati     MOSUNNY   91  64  40 VRB5      30.00F HX  92
Columbus       SUNNY     90  64  43 CALM      30.00F HX  91
Detroit        MOSUNNY   88  53  30 CALM      30.02F
Chicago O`Hare MOSUNNY   90  66  45 E7        30.01S HX  92
Minneapolis    MOSUNNY   88  69  53 SW7       29.97F HX  92
Indianapolis   MOSUNNY   89  70  53 VRB3      29.99F HX  94
Toronto Canada PTSUNNY   88  46  23 NW7       29.98F

$$




USA.gov is the U.S. government's official web portal to all federal, state and local government web resources and services.